Location: ???????
(52.3000°N, 54.4667°E)
Time: 19:46:58
(UTC+00:00)

Cosmos 44 - Pass Details

Date: 24 January 2020
Orbit: 595 x 767 km, 65.1° (Epoch: 21 February)

Event Time Altitude Azimuth Distance (km) Brightness Sun altitude
Rises 15:02:42 0° 213° (SSW) 2,940 7.1 -19.4°
Reaches altitude 10° 15:05:01 10° 212° (SSW) 2,010 6.2 -19.8°
Maximum altitude 15:09:31 71° 129° (SE) 655 2.9 -20.5°
Enters shadow 15:10:23 54° 68° (ENE) 747 3.1 -20.6°
